,,,PA_Meas_PMT16A,,PR_Meas_QMR101_102,,RH_Meas_QMH101,,SR_Meas_QMS101,,TA_Meas_QMH101,,GenWind,,GenWind,
date,time,status,PA,status,PR,status,RH,status,SR,status,TA,status,DirAvg,status,SpdAvg,
2009-11-11, 00:00:04,VALID,995.876,VALID,0,VALID,91.9903,VALID,0,VALID,23.1566,VALID,83,VALID,0,
2009-11-11, 00:01:04,VALID,995.854,VALID,0,VALID,92.0361,VALID,0,VALID,23.1566,VALID,83,VALID,0,
2009-11-11, 00:02:04,VALID,995.82,VALID,0,VALID,92.0285,VALID,0,VALID,23.1159,VALID,83,VALID,0,
2009-11-11, 00:03:04,VALID,995.817,VALID,0,VALID,92.0895,VALID,0,VALID,23.1176,VALID,83,VALID,0,
2009-11-11, 00:04:04,VALID,995.809,VALID,0,VALID,92.0895,VALID,0,VALID,23.1176,VALID,83,VALID,0,
2009-11-11, 00:05:04,VALID,995.819,VALID,0,VALID,92.1124,VALID,0,VALID,23.0981,VALID,83,VALID,0,
2009-11-11, 00:06:04,VALID,995.768,VALID,0,VALID,92.1582,VALID,0,VALID,23.0981,VALID,83,VALID,0,
2009-11-11, 00:07:04,VALID,995.712,VALID,0,VALID,92.12,VALID,0,VALID,23.0786,VALID,83,VALID,0,
2009-11-11, 00:08:04,VALID,995.675,VALID,0,VALID,92.1963,VALID,0,VALID,23.0573,VALID,83,VALID,0,
2009-11-11, 00:09:04,VALID,995.706,VALID,0,VALID,92.3718,VALID,0,VALID,23.0981,VALID,83,VALID,0.109375,
2009-11-11, 00:10:04,VALID,995.702,VALID,0,VALID,92.4786,VALID,0,VALID,23.0964,VALID,96,VALID,0.410156,
2009-11-11, 00:11:04,VALID,995.722,VALID,0,VALID,92.6083,VALID,0,VALID,23.1371,VALID,111,VALID,0.680859,
2009-11-11, 00:12:04,VALID,995.734,VALID,0,VALID,92.677,VALID,0,VALID,23.1939,VALID,132,VALID,0.54375,
2009-11-11, 00:13:04,VALID,995.688,VALID,0,VALID,92.5702,VALID,0,VALID,23.2542,VALID,132,VALID,0.534766,
2009-11-11, 00:14:04,VALID,995.707,VALID,0,VALID,92.3794,VALID,0,VALID,23.2524,VALID,132,VALID,0.375781,
2009-11-11, 00:15:04,VALID,995.717,VALID,0,VALID,92.2497,VALID,0,VALID,23.2932,VALID,126,VALID,0.632422,
2009-11-11, 00:16:04,VALID,995.718,VALID,0,VALID,92.0437,VALID,0,VALID,23.3127,VALID,98,VALID,0.810938,
2009-11-11, 00:17:04,VALID,995.691,VALID,0,VALID,91.9522,VALID,0,VALID,23.311,VALID,90,VALID,0.836719,
2009-11-11, 00:18:04,VALID,995.716,VALID,0,VALID,92.12,VALID,0,VALID,23.3323,VALID,60,VALID,0.896875,
2009-11-11, 00:19:04,VALID,995.708,VALID,0,VALID,92.2803,VALID,0,VALID,23.3518,VALID,59,VALID,0.463672,
2009-11-11, 00:20:04,VALID,995.682,VALID,0,VALID,92.2192,VALID,0,VALID,23.311,VALID,59,VALID,0.239844,
2009-11-11, 00:21:04,VALID,995.687,VALID,0,VALID,92.1353,VALID,0,VALID,23.3323,VALID,59,VALID,0,
2009-11-11, 00:22:04,VALID,995.716,VALID,0,VALID,92.1048,VALID,0,VALID,23.3323,VALID,59,VALID,0.00078125,
2009-11-11, 00:23:04,VALID,995.735,VALID,0,VALID,92.1734,VALID,0,VALID,23.311,VALID,155,VALID,0.607422,
2009-11-11, 00:24:04,VALID,995.722,VALID,0,VALID,92.3031,VALID,0,VALID,23.3518,VALID,157,VALID,0.400391,
2009-11-11, 00:25:04,VALID,995.706,VALID,0,VALID,92.3794,VALID,0,VALID,23.3908,VALID,159,VALID,0.587891,
2009-11-11, 00:26:04,VALID,995.701,VALID,0,VALID,92.3566,VALID,0,VALID,23.3908,VALID,165,VALID,0.884766,
2009-11-11, 00:27:04,VALID,995.698,VALID,0,VALID,92.41,VALID,0,VALID,23.4298,VALID,159,VALID,0.767578,
2009-11-11, 00:28:04,VALID,995.704,VALID,0,VALID,92.3871,VALID,0,VALID,23.4493,VALID,158,VALID,0.832031,
2009-11-11, 00:29:04,VALID,995.696,VALID,0,VALID,92.3031,VALID,0,VALID,23.4475,VALID,169,VALID,0.125781,
2009-11-11, 00:30:04,VALID,995.725,VALID,0,VALID,92.2268,VALID,0,VALID,23.5061,VALID,169,VALID,0,
2009-11-11, 00:31:04,VALID,995.759,VALID,0,VALID,92.1658,VALID,0,VALID,23.5061,VALID,169,VALID,0,
2009-11-11, 00:32:04,VALID,995.783,VALID,0,VALID,92.0895,VALID,0,VALID,23.5061,VALID,169,VALID,0,
2009-11-11, 00:33:04,VALID,995.78,VALID,0,VALID,92.0437,VALID,0,VALID,23.5043,VALID,169,VALID,0.333203,
2009-11-11, 00:34:04,VALID,995.795,VALID,0,VALID,92.0666,VALID,0,VALID,23.5043,VALID,164,VALID,0.640625,
2009-11-11, 00:35:04,VALID,995.783,VALID,0,VALID,92.0666,VALID,0,VALID,23.5451,VALID,167,VALID,0.133984,
2009-11-11, 00:36:04,VALID,995.749,VALID,0,VALID,91.647,VALID,0,VALID,23.4653,VALID,335,VALID,0.996875,
2009-11-11, 00:37:04,VALID,995.752,VALID,0,VALID,91.6851,VALID,0,VALID,23.4671,VALID,337,VALID,0.721875,
2009-11-11, 00:38:04,VALID,995.703,VALID,0,VALID,91.8759,VALID,0,VALID,23.4671,VALID,337,VALID,0.453906,
2009-11-11, 00:39:04,VALID,995.731,VALID,0,VALID,91.9827,VALID,0,VALID,23.4671,VALID,337,VALID,0.162891,
2009-11-11, 00:40:04,VALID,995.734,VALID,0,VALID,92.1277,VALID,0,VALID,23.4866,VALID,337,VALID,0.289453,
2009-11-11, 00:41:04,VALID,995.736,VALID,0,VALID,92.1582,VALID,0,VALID,23.4866,VALID,337,VALID,0.291797,
2009-11-11, 00:42:04,VALID,995.74,VALID,0,VALID,92.0361,VALID,0,VALID,23.4848,VALID,337,VALID,0.44375,
2009-11-11, 00:43:04,VALID,995.745,VALID,0,VALID,91.9445,VALID,0,VALID,23.4653,VALID,337,VALID,0,
2009-11-11, 00:44:04,VALID,995.734,VALID,0,VALID,91.9217,VALID,0,VALID,23.4671,VALID,337,VALID,0,
2009-11-11, 00:45:04,VALID,995.726,VALID,0,VALID,91.9369,VALID,0,VALID,23.4671,VALID,337,VALID,0,
2009-11-11, 00:46:04,VALID,995.7,VALID,0,VALID,91.9598,VALID,0,VALID,23.4866,VALID,337,VALID,0,
2009-11-11, 00:47:04,VALID,995.699,VALID,0,VALID,92.0132,VALID,0,VALID,23.4671,VALID,337,VALID,0,
2009-11-11, 00:48:04,VALID,995.654,VALID,0,VALID,92.0132,VALID,0,VALID,23.4458,VALID,337,VALID,0,
2009-11-11, 00:49:04,VALID,995.641,VALID,0,VALID,92.0437,VALID,0,VALID,23.4671,VALID,337,VALID,0,
2009-11-11, 00:50:04,VALID,995.634,VALID,0,VALID,91.9903,VALID,0,VALID,23.4671,VALID,337,VALID,0,
2009-11-11, 00:51:04,VALID,995.627,VALID,0,VALID,91.9522,VALID,0,VALID,23.4671,VALID,337,VALID,0,
2009-11-11, 00:52:04,VALID,995.616,VALID,0,VALID,91.9217,VALID,0,VALID,23.4671,VALID,337,VALID,0,
2009-11-11, 00:53:04,VALID,995.596,VALID,0,VALID,91.853,VALID,0,VALID,23.4671,VALID,337,VALID,0,
2009-11-11, 00:54:04,VALID,995.601,VALID,0,VALID,91.853,VALID,0,VALID,23.4263,VALID,337,VALID,0,
2009-11-11, 00:55:04,VALID,995.601,VALID,0,VALID,91.8835,VALID,0,VALID,23.4475,VALID,337,VALID,0,
2009-11-11, 00:56:04,VALID,995.588,VALID,0,VALID,91.9522,VALID,0,VALID,23.4475,VALID,337,VALID,0,
2009-11-11, 00:57:04,VALID,995.577,VALID,0,VALID,91.998,VALID,0,VALID,23.4475,VALID,337,VALID,0,
2009-11-11, 00:58:04,VALID,995.529,VALID,0,VALID,91.9827,VALID,0,VALID,23.4671,VALID,337,VALID,0,
2009-11-11, 00:59:04,VALID,995.466,VALID,0,VALID,91.9369,VALID,0,VALID,23.4458,VALID,337,VALID,0,
2009-11-11, 01:00:04,VALID,995.453,VALID,0,VALID,91.9522,VALID,0,VALID,23.4475,VALID,337,VALID,0,
2009-11-11, 01:01:04,VALID,995.455,VALID,0,VALID,91.8988,VALID,0,VALID,23.4688,VALID,337,VALID,0,
2009-11-11, 01:02:04,VALID,995.436,VALID,0,VALID,91.8988,VALID,0,VALID,23.4475,VALID,337,VALID,0,
2009-11-11, 01:03:04,VALID,995.412,VALID,0,VALID,91.8835,VALID,0,VALID,23.428,VALID,337,VALID,0,
2009-11-11, 01:04:04,VALID,995.382,VALID,0,VALID,91.8759,VALID,0,VALID,23.4298,VALID,337,VALID,0,
2009-11-11, 01:05:04,VALID,995.443,VALID,0,VALID,91.8454,VALID,0,VALID,23.389,VALID,337,VALID,0,
2009-11-11, 01:06:04,VALID,995.437,VALID,0,VALID,92.0056,VALID,0,VALID,23.3713,VALID,337,VALID,0,
2009-11-11, 01:07:04,VALID,995.447,VALID,0,VALID,92.1429,VALID,0,VALID,23.3713,VALID,348,VALID,0,
2009-11-11, 01:08:04,VALID,995.459,VALID,0,VALID,92.0971,VALID,0,VALID,23.3713,VALID,351,VALID,0,
2009-11-11, 01:09:04,VALID,995.483,VALID,0,VALID,92.0361,VALID,0,VALID,23.311,VALID,358,VALID,0,
2009-11-11, 01:10:04,VALID,995.505,VALID,0,VALID,91.8683,VALID,0,VALID,23.2915,VALID,358,VALID,0,
2009-11-11, 01:11:04,VALID,995.516,VALID,0,VALID,91.7996,VALID,0,VALID,23.2542,VALID,358,VALID,0,
2009-11-11, 01:12:04,VALID,995.531,VALID,0,VALID,91.9217,VALID,0,VALID,23.2329,VALID,358,VALID,0,
2009-11-11, 01:13:04,VALID,995.546,VALID,0,VALID,92.059,VALID,0,VALID,23.2347,VALID,358,VALID,0,
2009-11-11, 01:14:04,VALID,995.547,VALID,0,VALID,91.9674,VALID,0,VALID,23.2152,VALID,358,VALID,0,
2009-11-11, 01:15:04,VALID,995.556,VALID,0,VALID,92.2192,VALID,0,VALID,23.2347,VALID,358,VALID,0,
2009-11-11, 01:16:04,VALID,995.596,VALID,0,VALID,92.3489,VALID,0,VALID,23.2329,VALID,358,VALID,0,
2009-11-11, 01:17:04,VALID,995.591,VALID,0,VALID,92.3108,VALID,0,VALID,23.2524,VALID,358,VALID,0,
2009-11-11, 01:18:04,VALID,995.59,VALID,0,VALID,92.2421,VALID,0,VALID,23.2719,VALID,358,VALID,0,
2009-11-11, 01:19:04,VALID,995.595,VALID,0,VALID,92.1506,VALID,0,VALID,23.2719,VALID,358,VALID,0,
2009-11-11, 01:20:04,VALID,995.596,VALID,0,VALID,92.1048,VALID,0,VALID,23.2932,VALID,358,VALID,0,
2009-11-11, 01:21:04,VALID,995.609,VALID,0,VALID,92.0895,VALID,0,VALID,23.2915,VALID,358,VALID,0,
2009-11-11, 01:22:04,VALID,995.614,VALID,0,VALID,92.1124,VALID,0,VALID,23.2932,VALID,358,VALID,0,
2009-11-11, 01:23:04,VALID,995.621,VALID,0,VALID,92.0819,VALID,0,VALID,23.2932,VALID,358,VALID,0,
2009-11-11, 01:24:04,VALID,995.649,VALID,0,VALID,92.1353,VALID,0,VALID,23.3127,VALID,358,VALID,0,
2009-11-11, 01:25:04,VALID,995.645,VALID,0,VALID,92.2192,VALID,0,VALID,23.311,VALID,358,VALID,0,
2009-11-11, 01:26:04,VALID,995.679,VALID,0,VALID,92.3031,VALID,0,VALID,23.3323,VALID,358,VALID,0,
2009-11-11, 01:27:04,VALID,995.703,VALID,0,VALID,92.326,VALID,0,VALID,23.3305,VALID,358,VALID,0,
2009-11-11, 01:28:04,VALID,995.669,VALID,0,VALID,92.3413,VALID,0,VALID,23.3713,VALID,358,VALID,0,
2009-11-11, 01:29:04,VALID,995.689,VALID,0,VALID,92.3871,VALID,0,VALID,23.3713,VALID,358,VALID,0,
2009-11-11, 01:30:04,VALID,995.705,VALID,0,VALID,92.4481,VALID,0,VALID,23.3695,VALID,358,VALID,0,
2009-11-11, 01:31:04,VALID,995.725,VALID,0,VALID,92.4405,VALID,0,VALID,23.4085,VALID,358,VALID,0,
2009-11-11, 01:32:04,VALID,995.697,VALID,0,VALID,92.4176,VALID,0,VALID,23.4085,VALID,358,VALID,0,
2009-11-11, 01:33:04,VALID,995.708,VALID,0,VALID,92.4328,VALID,0,VALID,23.4085,VALID,358,VALID,0,
2009-11-11, 01:34:04,VALID,995.708,VALID,0,VALID,92.4634,VALID,0,VALID,23.4085,VALID,358,VALID,0,
2009-11-11, 01:35:04,VALID,995.717,VALID,0,VALID,92.4939,VALID,0,VALID,23.4493,VALID,358,VALID,0,
2009-11-11, 01:36:04,VALID,995.703,VALID,0,VALID,92.5168,VALID,0,VALID,23.4475,VALID,358,VALID,0,
2009-11-11, 01:37:04,VALID,995.696,VALID,0,VALID,92.5091,VALID,0,VALID,23.4493,VALID,358,VALID,0,
2009-11-11, 01:38:04,VALID,995.686,VALID,0,VALID,92.4863,VALID,0,VALID,23.4475,VALID,358,VALID,0,
2009-11-11, 01:39:04,VALID,995.663,VALID,0,VALID,92.4481,VALID,0,VALID,23.4475,VALID,358,VALID,0,
2009-11-11, 01:40:04,VALID,995.632,VALID,0,VALID,92.3413,VALID,0,VALID,23.428,VALID,358,VALID,0,
2009-11-11, 01:41:04,VALID,995.61,VALID,0,VALID,92.3184,VALID,0,VALID,23.4103,VALID,358,VALID,0,
2009-11-11, 01:42:04,VALID,995.578,VALID,0,VALID,92.4252,VALID,0,VALID,23.4085,VALID,358,VALID,0,
2009-11-11, 01:43:04,VALID,995.592,VALID,0,VALID,92.5168,VALID,0,VALID,23.389,VALID,358,VALID,0,
2009-11-11, 01:44:04,VALID,995.575,VALID,0,VALID,92.5702,VALID,0,VALID,23.4085,VALID,358,VALID,0,
2009-11-11, 01:45:04,VALID,995.515,VALID,0,VALID,92.5778,VALID,0,VALID,23.4298,VALID,358,VALID,0,
2009-11-11, 01:46:04,VALID,995.493,VALID,0,VALID,92.6007,VALID,0,VALID,23.4298,VALID,358,VALID,0,
2009-11-11, 01:47:04,VALID,995.455,VALID,0,VALID,92.6083,VALID,0,VALID,23.4493,VALID,358,VALID,0,
2009-11-11, 01:48:04,VALID,995.431,VALID,0,VALID,92.5091,VALID,0,VALID,23.4085,VALID,358,VALID,0,
2009-11-11, 01:49:04,VALID,995.405,VALID,0,VALID,92.5397,VALID,0,VALID,23.389,VALID,358,VALID,0,
2009-11-11, 01:50:04,VALID,995.371,VALID,0,VALID,92.6694,VALID,0,VALID,23.4085,VALID,358,VALID,0,
2009-11-11, 01:51:04,VALID,995.34,VALID,0,VALID,92.6236,VALID,0,VALID,23.4085,VALID,358,VALID,0,
2009-11-11, 01:52:04,VALID,995.34,VALID,0,VALID,92.6007,VALID,0,VALID,23.428,VALID,358,VALID,0,
2009-11-11, 01:53:04,VALID,995.333,VALID,0,VALID,92.4023,VALID,0,VALID,23.4688,VALID,358,VALID,0,
2009-11-11, 01:54:04,VALID,995.356,VALID,0,VALID,92.1048,VALID,0,VALID,23.4671,VALID,358,VALID,0,
2009-11-11, 01:55:04,VALID,995.382,VALID,0,VALID,91.6546,VALID,0,VALID,23.428,VALID,358,VALID,0,
2009-11-11, 01:56:04,VALID,995.385,VALID,0,VALID,91.647,VALID,0,VALID,23.4493,VALID,358,VALID,0,
2009-11-11, 01:57:04,VALID,995.4,VALID,0,VALID,91.8148,VALID,0,VALID,23.4671,VALID,1,VALID,0,
2009-11-11, 01:58:04,VALID,995.43,VALID,0,VALID,91.6775,VALID,0,VALID,23.4866,VALID,133,VALID,0,
2009-11-11, 01:59:04,VALID,995.462,VALID,0,VALID,91.586,VALID,0,VALID,23.5274,VALID,133,VALID,1.31289,
2009-11-11, 02:00:04,VALID,995.473,VALID,0,VALID,91.3952,VALID,0,VALID,23.5274,VALID,136,VALID,1.32852,
2009-11-11, 02:01:04,VALID,995.447,VALID,0,VALID,91.1511,VALID,0,VALID,23.4671,VALID,136,VALID,1.04648,
2009-11-11, 02:02:04,VALID,995.406,VALID,0,VALID,91.1053,VALID,0,VALID,23.4688,VALID,124,VALID,0.734375,
2009-11-11, 02:03:04,VALID,995.415,VALID,0,VALID,91.1892,VALID,0,VALID,23.4085,VALID,116,VALID,0.803906,
2009-11-11, 02:04:04,VALID,995.379,VALID,0,VALID,91.3723,VALID,0,VALID,23.389,VALID,112,VALID,0.820703,
2009-11-11, 02:05:04,VALID,995.403,VALID,0,VALID,91.5326,VALID,0,VALID,23.3695,VALID,108,VALID,0.933594,
2009-11-11, 02:06:04,VALID,995.449,VALID,0,VALID,91.6012,VALID,0,VALID,23.3695,VALID,100,VALID,0.995703,
2009-11-11, 02:07:04,VALID,995.436,VALID,0,VALID,91.4639,VALID,0,VALID,23.3695,VALID,92,VALID,1.16172,
2009-11-11, 02:08:04,VALID,995.476,VALID,0,VALID,91.4105,VALID,0,VALID,23.3695,VALID,93,VALID,1.22461,
2009-11-11, 02:09:04,VALID,995.47,VALID,0,VALID,91.4868,VALID,0,VALID,23.35,VALID,94,VALID,0.801172,
2009-11-11, 02:10:04,VALID,995.461,VALID,0,VALID,91.5097,VALID,0,VALID,23.3305,VALID,96,VALID,0.789063,
2009-11-11, 02:11:04,VALID,995.485,VALID,0,VALID,91.7004,VALID,0,VALID,23.3713,VALID,96,VALID,0.694141,
2009-11-11, 02:12:04,VALID,995.468,VALID,0,VALID,91.6928,VALID,0,VALID,23.3305,VALID,96,VALID,0.367578,
2009-11-11, 02:13:04,VALID,995.485,VALID,0,VALID,91.6623,VALID,0,VALID,23.311,VALID,96,VALID,0.204688,
2009-11-11, 02:14:04,VALID,995.501,VALID,0,VALID,91.6317,VALID,0,VALID,23.3127,VALID,96,VALID,0.159766,
2009-11-11, 02:15:04,VALID,995.525,VALID,0,VALID,91.6775,VALID,0,VALID,23.2719,VALID,96,VALID,0.170703,
2009-11-11, 02:16:04,VALID,995.474,VALID,0,VALID,91.8683,VALID,0,VALID,23.3127,VALID,179,VALID,0.307422,
2009-11-11, 02:17:04,VALID,995.516,VALID,0,VALID,91.9827,VALID,0,VALID,23.3323,VALID,179,VALID,0,
2009-11-11, 02:18:04,VALID,995.511,VALID,0,VALID,92.0132,VALID,0,VALID,23.3323,VALID,179,VALID,0,
2009-11-11, 02:19:04,VALID,995.529,VALID,0,VALID,92.0437,VALID,0,VALID,23.3518,VALID,179,VALID,0,
2009-11-11, 02:20:04,VALID,995.582,VALID,0,VALID,92.059,VALID,0,VALID,23.3713,VALID,179,VALID,0,
2009-11-11, 02:21:04,VALID,995.605,VALID,0,VALID,92.1734,VALID,0,VALID,23.3713,VALID,179,VALID,0.370313,
2009-11-11, 02:22:04,VALID,995.676,VALID,0,VALID,92.2421,VALID,0,VALID,23.4103,VALID,179,VALID,0.504297,
2009-11-11, 02:23:04,VALID,995.715,VALID,0,VALID,92.1506,VALID,0,VALID,23.4298,VALID,179,VALID,0.419531,
2009-11-11, 02:24:04,VALID,995.736,VALID,0,VALID,92.0361,VALID,0,VALID,23.4688,VALID,156,VALID,0.628516,
2009-11-11, 02:25:04,VALID,995.765,VALID,0,VALID,91.8683,VALID,0,VALID,23.4671,VALID,143,VALID,0.444922,
2009-11-11, 02:26:04,VALID,995.756,VALID,0,VALID,91.7614,VALID,0,VALID,23.5079,VALID,143,VALID,0.556641,
2009-11-11, 02:27:04,VALID,995.737,VALID,0,VALID,91.8148,VALID,0,VALID,23.5061,VALID,143,VALID,0.735547,
2009-11-11, 02:28:04,VALID,995.767,VALID,0,VALID,91.7309,VALID,0,VALID,23.5664,VALID,146,VALID,0.968359,
2009-11-11, 02:29:04,VALID,995.765,VALID,0,VALID,91.6165,VALID,0,VALID,23.5859,VALID,147,VALID,0.775,
2009-11-11, 02:30:04,VALID,995.74,VALID,0,VALID,91.4791,VALID,0,VALID,23.5859,VALID,148,VALID,0.475781,
2009-11-11, 02:31:04,VALID,995.717,VALID,0,VALID,91.441,VALID,0,VALID,23.5664,VALID,148,VALID,0.250391,
2009-11-11, 02:32:04,VALID,995.72,VALID,0,VALID,91.4639,VALID,0,VALID,23.5859,VALID,148,VALID,0,
2009-11-11, 02:33:04,VALID,995.671,VALID,0,VALID,91.4715,VALID,0,VALID,23.6267,VALID,148,VALID,0,
2009-11-11, 02:34:04,VALID,995.66,VALID,0,VALID,91.5249,VALID,0,VALID,23.6036,VALID,149,VALID,0,
2009-11-11, 02:35:04,VALID,995.644,VALID,0,VALID,91.4944,VALID,0,VALID,23.625,VALID,150,VALID,0,
2009-11-11, 02:36:04,VALID,995.632,VALID,0,VALID,91.4791,VALID,0,VALID,23.6232,VALID,150,VALID,0,
2009-11-11, 02:37:04,VALID,995.607,VALID,0,VALID,91.3876,VALID,0,VALID,23.6036,VALID,150,VALID,0,
2009-11-11, 02:38:04,VALID,995.57,VALID,0,VALID,91.3571,VALID,0,VALID,23.625,VALID,150,VALID,0,
2009-11-11, 02:39:04,VALID,995.582,VALID,0,VALID,91.3876,VALID,0,VALID,23.6054,VALID,163,VALID,0,
2009-11-11, 02:40:04,VALID,995.576,VALID,0,VALID,91.3723,VALID,0,VALID,23.5664,VALID,325,VALID,0.956641,
2009-11-11, 02:41:04,VALID,995.575,VALID,0,VALID,91.4105,VALID,0,VALID,23.5256,VALID,338,VALID,1.10039,
2009-11-11, 02:42:04,VALID,995.659,VALID,0,VALID,91.4563,VALID,0,VALID,23.5079,VALID,359,VALID,1.13398,
2009-11-11, 02:43:04,VALID,995.645,VALID,0,VALID,91.5478,VALID,0,VALID,23.4688,VALID,8,VALID,1.14102,
2009-11-11, 02:44:04,VALID,995.671,VALID,0,VALID,91.6394,VALID,0,VALID,23.4298,VALID,25,VALID,1.48672,
2009-11-11, 02:45:04,VALID,995.704,VALID,0,VALID,91.8606,VALID,0,VALID,23.4085,VALID,32,VALID,1.72266,
2009-11-11, 02:46:04,VALID,995.723,VALID,0,VALID,92.0285,VALID,0,VALID,23.389,VALID,30,VALID,1.26016,
2009-11-11, 02:47:04,VALID,995.744,VALID,0,VALID,92.1506,VALID,0,VALID,23.3695,VALID,38,VALID,1.30859,
2009-11-11, 02:48:04,VALID,995.729,VALID,0,VALID,92.3413,VALID,0,VALID,23.4085,VALID,24,VALID,1.24063,
2009-11-11, 02:49:04,VALID,995.726,VALID,0,VALID,92.471,VALID,0,VALID,23.428,VALID,28,VALID,1.2668,
2009-11-11, 02:50:04,VALID,995.757,VALID,0,VALID,92.4405,VALID,0,VALID,23.4866,VALID,46,VALID,1.63633,
2009-11-11, 02:51:04,VALID,995.746,VALID,0,VALID,92.2879,VALID,0,VALID,23.5646,VALID,55,VALID,1.13398,
2009-11-11, 02:52:04,VALID,995.773,VALID,0,VALID,92.1734,VALID,0,VALID,23.6232,VALID,67,VALID,1.05664,
2009-11-11, 02:53:04,VALID,995.782,VALID,0,VALID,92.1582,VALID,0,VALID,23.6622,VALID,49,VALID,1.03945,
2009-11-11, 02:54:04,VALID,995.826,VALID,0,VALID,92.12,VALID,0,VALID,23.7012,VALID,57,VALID,0.801562,
2009-11-11, 02:55:04,VALID,995.877,VALID,0,VALID,92.1506,VALID,0,VALID,23.7207,VALID,58,VALID,0.823828,
2009-11-11, 02:56:04,VALID,995.907,VALID,0,VALID,92.2268,VALID,0,VALID,23.7189,VALID,43,VALID,1.19727,
2009-11-11, 02:57:04,VALID,995.928,VALID,0,VALID,92.2574,VALID,0,VALID,23.7793,VALID,35,VALID,1.43906,
2009-11-11, 02:58:04,VALID,995.981,VALID,0,VALID,92.0971,VALID,0,VALID,23.8183,VALID,44,VALID,1.83125,
2009-11-11, 02:59:04,VALID,995.997,VALID,0,VALID,91.7462,VALID,0,VALID,23.8963,VALID,44,VALID,2.23633,
2009-11-11, 03:00:04,VALID,996.027,VALID,0,VALID,91.1358,VALID,0,VALID,23.9549,VALID,57,VALID,1.67383,
2009-11-11, 03:01:04,VALID,996.027,VALID,0,VALID,90.6933,VALID,0,VALID,24.0134,VALID,57,VALID,1.61172,
2009-11-11, 03:02:04,VALID,996.054,VALID,0,VALID,90.6399,VALID,0,VALID,24.0506,VALID,70,VALID,1.1043,
2009-11-11, 03:03:04,VALID,996.068,VALID,0,VALID,90.1592,VALID,0,VALID,24.0897,VALID,68,VALID,2.36992,
2009-11-11, 03:04:04,VALID,996.079,VALID,0,VALID,89.8235,VALID,0,VALID,24.1891,VALID,80,VALID,1.81875,
2009-11-11, 03:05:04,VALID,996.172,VALID,0,VALID,90.205,VALID,0,VALID,24.2866,VALID,91,VALID,1.4332,
2009-11-11, 03:06:04,VALID,996.168,VALID,0,VALID,89.8998,VALID,0,VALID,24.3452,VALID,86,VALID,1.6668,
2009-11-11, 03:07:04,VALID,996.207,VALID,0,VALID,89.0987,VALID,0,VALID,24.4428,VALID,89,VALID,2.82773,
2009-11-11, 03:08:04,VALID,996.225,VALID,0,VALID,88.7249,VALID,0,VALID,24.5775,VALID,93,VALID,2.48555,
2009-11-11, 03:09:04,VALID,996.271,VALID,0,VALID,88.4349,VALID,0,VALID,24.6575,VALID,93,VALID,2.65,
2009-11-11, 03:10:04,VALID,996.288,VALID,0.5,VALID,88.557,VALID,0,VALID,24.677,VALID,96,VALID,2.16641,
2009-11-11, 03:11:04,VALID,996.197,VALID,0,VALID,88.8622,VALID,0,VALID,24.638,VALID,139,VALID,1.1043,
2009-11-11, 03:12:04,VALID,996.157,VALID,0,VALID,88.0916,VALID,0,VALID,24.5989,VALID,150,VALID,1.52461,
2009-11-11, 03:13:04,VALID,996.147,VALID,0.5,VALID,87.1455,VALID,0.112286,VALID,24.5775,VALID,140,VALID,1.69336,
2009-11-11, 03:14:04,VALID,996.117,VALID,0,VALID,87.0082,VALID,0,VALID,24.6575,VALID,130,VALID,1.45352,
2009-11-11, 03:15:04,VALID,996.119,VALID,0,VALID,87.0463,VALID,0,VALID,24.6184,VALID,124,VALID,1.2625,
2009-11-11, 03:16:04,VALID,996.136,VALID,0,VALID,87.2829,VALID,0,VALID,24.6184,VALID,125,VALID,1.83945,
2009-11-11, 03:17:04,VALID,996.129,VALID,0.5,VALID,87.3134,VALID,0,VALID,24.6594,VALID,118,VALID,1.99844,
2009-11-11, 03:18:04,VALID,996.13,VALID,0,VALID,87.6338,VALID,0,VALID,24.677,VALID,115,VALID,1.96523,
2009-11-11, 03:19:04,VALID,996.118,VALID,0,VALID,87.9543,VALID,0,VALID,24.6789,VALID,122,VALID,1.58125,
2009-11-11, 03:20:04,VALID,996.083,VALID,0,VALID,88.1374,VALID,0,VALID,24.638,VALID,134,VALID,1.20469,
2009-11-11, 03:21:04,VALID,996.054,VALID,0,VALID,88.5723,VALID,0,VALID,24.5989,VALID,149,VALID,0.935938,
2009-11-11, 03:22:04,VALID,996.042,VALID,0,VALID,88.5341,VALID,0,VALID,24.5599,VALID,156,VALID,1.76094,
2009-11-11, 03:23:04,VALID,996.014,VALID,0,VALID,89.1368,VALID,0,VALID,24.5599,VALID,185,VALID,1.33477,
2009-11-11, 03:24:04,VALID,995.952,VALID,0,VALID,88.9385,VALID,0,VALID,24.5404,VALID,198,VALID,1.24063,
2009-11-11, 03:25:04,VALID,995.925,VALID,0,VALID,89.114,VALID,0,VALID,24.5404,VALID,217,VALID,0.730078,
2009-11-11, 03:26:04,VALID,995.927,VALID,0,VALID,88.8927,VALID,0,VALID,24.5209,VALID,223,VALID,0.514063,
2009-11-11, 03:27:04,VALID,995.922,VALID,0,VALID,88.8622,VALID,0,VALID,24.5209,VALID,223,VALID,0.360156,
2009-11-11, 03:28:04,VALID,995.95,VALID,0,VALID,89.1216,VALID,0,VALID,24.5209,VALID,223,VALID,0.0875,
2009-11-11, 03:29:04,VALID,995.989,VALID,0,VALID,89.4497,VALID,0,VALID,24.5013,VALID,223,VALID,0.244531,
2009-11-11, 03:30:04,VALID,995.977,VALID,0,VALID,89.5717,VALID,0,VALID,24.4623,VALID,223,VALID,0.285156,
2009-11-11, 03:31:04,VALID,995.97,VALID,0,VALID,89.7777,VALID,0,VALID,24.4037,VALID,223,VALID,0.271875,
2009-11-11, 03:32:04,VALID,995.99,VALID,0,VALID,90.0677,VALID,0,VALID,24.3647,VALID,224,VALID,0.505859,
2009-11-11, 03:33:04,VALID,995.966,VALID,0,VALID,90.1821,VALID,0,VALID,24.3062,VALID,230,VALID,0.485547,
2009-11-11, 03:34:04,VALID,996.003,VALID,0,VALID,90.3805,VALID,0,VALID,24.2671,VALID,230,VALID,0.369922,
2009-11-11, 03:35:04,VALID,995.976,VALID,0,VALID,90.6094,VALID,0,VALID,24.2281,VALID,270,VALID,0.576563,
2009-11-11, 03:36:04,VALID,995.961,VALID,0,VALID,90.7696,VALID,0,VALID,24.1891,VALID,307,VALID,0.623047,
2009-11-11, 03:37:04,VALID,995.966,VALID,0,VALID,90.9985,VALID,0,VALID,24.1696,VALID,307,VALID,0.360547,
2009-11-11, 03:38:04,VALID,995.925,VALID,0,VALID,91.1892,VALID,0,VALID,24.1305,VALID,307,VALID,0.309766,
2009-11-11, 03:39:04,VALID,995.925,VALID,0,VALID,91.2121,VALID,0,VALID,24.072,VALID,307,VALID,0.532422,
2009-11-11, 03:40:04,VALID,995.921,VALID,0,VALID,91.3647,VALID,0,VALID,24.0525,VALID,306,VALID,0.444531,
2009-11-11, 03:41:04,VALID,995.928,VALID,0,VALID,91.5173,VALID,0,VALID,24.0525,VALID,239,VALID,0.614844,
2009-11-11, 03:42:04,VALID,995.935,VALID,0,VALID,91.6394,VALID,0,VALID,24.0525,VALID,230,VALID,0.567969,
2009-11-11, 03:43:04,VALID,995.944,VALID,0,VALID,91.7157,VALID,0,VALID,24.0525,VALID,220,VALID,0.512109,
2009-11-11, 03:44:04,VALID,995.93,VALID,0,VALID,91.853,VALID,0,VALID,24.0525,VALID,220,VALID,0.281641,
2009-11-11, 03:45:04,VALID,995.975,VALID,0,VALID,91.8606,VALID,0,VALID,24.0525,VALID,220,VALID,0.371484,
2009-11-11, 03:46:04,VALID,995.975,VALID,0,VALID,91.8683,VALID,0,VALID,24.0329,VALID,220,VALID,0.65,
2009-11-11, 03:47:04,VALID,995.968,VALID,0,VALID,91.7462,VALID,0,VALID,24.0329,VALID,199,VALID,0.903906,
2009-11-11, 03:48:04,VALID,995.991,VALID,0,VALID,91.9903,VALID,0,VALID,24.0915,VALID,170,VALID,1.52227,
2009-11-11, 03:49:04,VALID,995.993,VALID,0,VALID,92.0514,VALID,0,VALID,24.1128,VALID,178,VALID,1.3457,
2009-11-11, 03:50:04,VALID,996.003,VALID,0,VALID,91.8148,VALID,0,VALID,24.111,VALID,204,VALID,1.37539,
2009-11-11, 03:51:04,VALID,996,VALID,0,VALID,91.7233,VALID,0,VALID,24.1305,VALID,203,VALID,1.4793,
2009-11-11, 03:52:04,VALID,995.997,VALID,0,VALID,91.6165,VALID,0,VALID,24.1696,VALID,207,VALID,0.98125,